Location: Grand Moustoir
(47.8355°N, 3.3120°W)
Time: 16:19:58
(UTC+00:00)

Meteor 2-17 Rocket - Pass Details

Date: 20 January 2020
Orbit: 934 x 957 km, 82.5° (Epoch: 19 February)

Event Time Altitude Azimuth Distance (km) Brightness Sun altitude
Rises 05:55:02 0° 347° (NNW) 3,626 7.3 -19.6°
Reaches altitude 10° 05:57:34 10° 344° (NNW) 2,673 6.5 -19.2°
Maximum altitude 06:03:32 59° 267° (W) 1,085 4.4 -18.2°
Drops below altitude 10° 06:09:26 10° 189° (S) 2,642 6.8 -17.2°
Sets 06:11:56 0° 186° (S) 3,580 7.5 -16.8°
